Location: Unspecified
(56.5167°N, 0.0000°E)
Time: 03:39:22
(UTC+01:00)

ISS - Visible Passes

Search period start: 24 January 2019 00:00
Search period end: 03 February 2019 00:00
Orbit: 404 x 410 km, 51.6° (Epoch: 24 January)

Date Brightness Start Highest point End Pass type
(mag) Time Alt. Az. Time Alt. Az. Time Alt. Az.
24 Jan -1.1 19:24:42 10° SSE 19:24:47 10° SSE 19:24:47 10° SSE visible
25 Jan -1.2 20:07:32 10° SSW 20:08:24 15° SSW 20:08:24 15° SSW visible
26 Jan -1.8 19:16:44 10° SSW 19:18:59 17° SSE 19:19:13 17° SSE visible
26 Jan -0.5 20:51:55 10° WSW 20:51:57 10° WSW 20:51:57 10° WSW visible
27 Jan -1.4 18:26:18 10° S 18:27:51 13° SSE 18:29:23 10° ESE visible
27 Jan -2.0 20:00:45 10° SW 20:02:43 25° SSW 20:02:43 25° SSW visible
28 Jan -2.2 19:09:40 10° SW 19:12:25 24° SSE 19:13:26 21° SE visible
28 Jan -0.9 20:45:25 10° WSW 20:46:09 15° WSW 20:46:09 15° WSW visible
29 Jan -1.8 18:18:44 10° SSW 18:21:11 19° SSE 18:23:38 10° ESE visible
29 Jan -2.6 19:54:08 10° WSW 19:56:50 33° S 19:56:50 33° S visible
30 Jan -2.5 19:02:53 10° SW 19:05:52 31° S 19:07:30 20° ESE visible
30 Jan -1.2 20:38:57 10° WSW 20:40:12 19° WSW 20:40:12 19° WSW visible
31 Jan -2.2 18:11:44 10° SW 18:14:34 26° SSE 18:17:24 10° ESE visible
31 Jan -2.8 19:47:35 10° WSW 19:50:38 35° S 19:50:52 34° S visible
01 Feb -2.6 18:56:14 10° WSW 18:59:18 35° S 19:01:32 16° ESE visible
01 Feb -1.5 20:32:32 10° WSW 20:34:14 21° SW 20:34:14 21° SW visible
02 Feb -2.4 19:41:05 10° WSW 19:44:03 31° SSW 19:44:55 26° SSE visible
